[[{"header":{"parameterUnit":"m.s-1","parameterCategory":1,"la1":30.2991,"la2":30.254,"lo1":-89.0895,"lo2":-89.0444,"dy":0.0017,"dx":0.0017,"nx":28,"ny":28,"refTime":"2023-07-22T09:00:00:Z","depth":0,"parameterNumber":2,"parameterNumberName":"U-component_of_WINDS"},"data":[0,0,0,0,0,0,0,0,0,0,0,0,0,0,0,0,0,0,0,0,0,0,0,0,0,0,0,0,0,0,0,0,0,0,0,0,0,0,0,0,0,0,0,0,0,0,0,0,0,0,0,0,0,0,0,0,0,0,2.9259,2.9261,0,2.9384,2.9386,2.9387,2.9382,2.9381,2.9379,2.9377,2.951,2.9515,2.952,0,0,0,0,0,0,0,0,0,0,0,0,0,2.902,2.9025,2.9259,2.9261,2.9262,2.9384,2.9386,2.9388,2.9383,2.938,2.9378,2.9376,2.9509,2.9515,2.9521,0,0,0,0,0,0,0,0,0,0,0,0,0,2.9133,2.9026,2.9259,2.9274,2.9277,2.9384,2.9386,2.9388,2.9383,2.938,2.9378,2.9375,2.9507,2.9514,2.9522,2.9623,0,0,2.9546,2.9549,0,0,0,0,0,0,0,0,2.9126,2.9142,2.9271,2.9273,2.9277,2.9365,2.9351,2.9467,2.9384,2.9343,2.9377,2.9374,2.9464,2.9475,2.9505,2.9629,2.9635,2.9546,2.9551,2.9554,2.9557,0,0,0,0,0,0,0,2.9119,2.9136,2.9309,2.9272,2.9276,2.9277,2.929,2.9373,2.9417,2.9346,2.9346,2.9361,2.9466,2.9497,2.9508,2.9637,2.9546,2.9553,2.9558,2.9561,2.985,2.9853,0,0,0,0,0,0,2.9107,2.913,2.9305,2.9313,2.9193,2.9283,2.9298,2.9339,2.9416,2.9425,2.9363,2.936,2.9485,2.9499,2.9513,2.9635,2.9554,2.9562,2.9566,2.9847,2.9851,2.9854,0,0,0,0,0,0,2.9102,2.9123,2.93,2.9221,2.9244,2.929,2.9337,2.9343,2.9375,2.9429,2.9437,2.9387,2.9484,2.9502,2.9595,2.964,2.9565,2.9572,2.9844,2.9848,2.9852,2.9882,0,0,0,0,0,0,2.9095,2.9121,2.9158,2.9222,2.9248,2.9379,2.934,2.9348,2.9388,2.9385,2.9453,2.9462,2.9483,2.9583,2.9603,2.9649,2.9578,2.984,2.9846,2.9851,2.9877,2.9887,2.9895,0,0,0,0,0,2.9086,2.9163,2.916,2.9182,2.9296,2.9381,2.9396,2.9417,2.9391,2.943,2.9465,2.946,2.9632,2.9593,2.9615,2.9664,2.9837,2.9844,2.9851,2.9873,2.9885,2.9895,0,0,0,0,0,0,2.9105,2.9171,2.9169,2.9268,2.9319,2.938,2.943,2.9429,2.949,2.9485,2.951,2.9526,2.9619,2.9651,2.9607,2.9766,2.9732,2.9743,2.9741,2.9753,2.9761,2.9751,2.9585,0,0,0,0,0,2.912,2.9182,2.9238,2.932,2.9345,2.9383,2.9421,2.9433,2.9487,2.9509,2.9551,2.9605,2.9671,2.9714,2.9778,2.9882,2.9897,2.9927,2.9936,2.9943,2.9952,3.0009,3.0023,2.9876,2.9876,2.9876,0,0,2.9153,2.9197,2.9235,2.9325,2.9365,2.943,2.9401,2.9472,2.952,2.952,2.961,2.9643,2.9705,2.9804,2.985,2.9834,2.9996,2.9952,2.9957,2.9962,3.0018,3.0031,3.0044,2.9881,2.988,2.9879,0,0,2.9245,2.9285,2.9357,2.9398,2.9459,2.9484,2.9502,2.9563,2.9584,2.9675,2.9676,2.9735,2.9849,2.9893,2.993,3.0039,3.0037,3.006,3.0106,3.0162,3.0173,3.0183,3.0221,3.0235,3.0069,3.0069,3.0069,0,2.9278,2.9375,2.9395,2.9465,2.9504,2.9506,2.958,2.962,2.9699,2.9727,2.9708,2.985,2.9893,3.0001,3.0028,3.0058,3.0079,3.0051,3.017,3.018,3.019,3.0227,3.0241,3.0072,3.0071,3.0071,3.0071,0,2.9412,2.9479,2.953,2.9605,2.9651,2.9723,2.9755,2.9799,2.9808,2.9835,2.9927,2.9978,3.0051,3.0079,3.0088,3.0189,3.0177,3.0164,3.0129,3.0206,3.024,3.0255,3.0075,3.0074,3.0073,3.0073,0,0,2.9518,2.9603,2.9621,2.9655,2.9723,2.9776,2.9849,2.9919,2.9956,3.0012,3.0073,3.017,3.0157,3.02,3.0215,3.0263,3.0345,3.0244,3.0246,3.026,3.0459,3.0466,3.0482,3.0345,3.0348,3.035,3.0453,0,2.9616,2.9742,2.9762,2.9874,2.9936,2.9939,3.0002,3.0052,3.008,3.0138,3.0169,3.0236,3.0216,3.0241,3.029,3.0325,3.0385,3.0318,3.0402,3.0405,3.0384,3.0501,3.051,3.0604,3.0467,3.0469,3.0471,0,2.9746,2.9803,2.992,2.9979,3.0006,3.0062,3.0129,3.0184,3.0241,3.0258,3.0305,3.0314,3.039,3.0354,3.0459,3.0413,3.0449,3.0472,3.0476,3.0484,3.0441,3.0509,3.0635,3.0648,3.0493,3.0491,3.0489,0,2.981,2.9916,3.0,3.0029,3.0101,3.014,3.0172,3.0226,3.0267,3.0326,3.0352,3.042,3.0457,3.051,3.0537,3.0508,3.0641,3.0607,3.0657,3.0656,3.0683,3.0681,3.0814,3.071,3.071,3.0709,3.0709,0,2.9916,2.9987,3.0029,3.008,3.016,3.0184,3.0263,3.0295,3.0343,3.0401,3.0409,3.0464,3.0498,3.0558,3.0581,3.0664,3.0681,3.0697,3.0702,3.0695,3.0693,3.0718,3.0711,3.0713,3.0712,3.0712,3.0711,0,2.9999,3.003,3.0121,3.0181,3.0198,3.0254,3.0307,3.0357,3.0385,3.0459,3.0477,3.0522,3.0593,3.0626,3.0715,3.073,3.0824,3.0826,3.0804,3.0806,3.0853,3.0847,3.1006,3.1027,3.091,3.0911,3.0912,0,3.0064,3.0118,3.0184,3.0223,3.0255,3.0318,3.0359,3.0386,3.0429,3.0498,3.054,3.0611,3.0669,3.0783,3.0824,3.0892,3.0894,3.0945,3.0904,3.0895,3.0892,3.0888,3.0893,3.0951,3.0952,3.0953,3.0954,0,3.0175,3.0187,3.0246,3.031,3.0359,3.0411,3.0463,3.0495,3.053,3.0578,3.065,3.0695,3.0784,3.0855,3.0925,3.096,3.0963,3.0967,3.0982,3.0974,3.0959,3.0966,3.0822,3.0963,3.0962,3.0961,3.0961,3.096,3.0249,3.0297,3.0351,3.0416,3.0457,3.0505,3.0555,3.0589,3.0649,3.0722,3.0736,3.0812,3.0868,3.0963,3.1,3.1061,3.1049,3.1071,3.1076,3.108,3.1082,3.0951,3.1074,3.1074,3.1074,3.1073,3.1073,0,3.0359,3.0393,3.0453,3.0524,3.0576,3.0573,3.063,3.0674,3.074,3.0792,3.0848,3.0931,3.0999,3.1045,3.1115,3.1155,3.1158,3.1172,3.1168,3.1176,3.109,3.1069,3.1168,3.1168,3.1168,3.1168,3.1168,3.1168,3.0422,3.0503,3.0522,3.0624,3.0659,3.0732,3.0764,3.0809,3.085,3.0941,3.0997,3.1026,3.1076,3.1149,3.1212,3.1224,3.1249,3.1263,3.1274,3.1192,3.1182,3.1173,3.1153,3.1269,3.1269,3.1355,3.1356,3.1357]},{"header":{"parameterUnit":"m.s-1","parameterCategory":1,"la1":30.2991,"la2":30.254,"lo1":-89.0895,"lo2":-89.0444,"dy":0.0017,"dx":0.0017,"nx":28,"ny":28,"refTime":"2023-07-22T09:00:00:Z","depth":0,"parameterNumber":3,"parameterNumberName":"V-component_of_WINDS"},"data":[0,0,0,0,0,0,0,0,0,0,0,0,0,0,0,0,0,0,0,0,0,0,0,0,0,0,0,0,0,0,0,0,0,0,0,0,0,0,0,0,0,0,0,0,0,0,0,0,0,0,0,0,0,0,0,0,0,0,5.3581,5.3582,0,5.3673,5.3674,5.3675,5.3655,5.3653,5.3652,5.365,5.3736,5.3739,5.3743,0,0,0,0,0,0,0,0,0,0,0,0,0,5.3376,5.338,5.3581,5.3582,5.3583,5.3673,5.3674,5.3675,5.3655,5.3653,5.3651,5.3649,5.3734,5.3739,5.3744,0,0,0,0,0,0,0,0,0,0,0,0,0,5.3466,5.3382,5.3581,5.3584,5.3585,5.3673,5.3674,5.3676,5.3656,5.3653,5.3651,5.3648,5.3733,5.3738,5.3744,5.3831,0,0,5.3762,5.3764,0,0,0,0,0,0,0,0,5.3461,5.3474,5.3582,5.3584,5.3586,5.365,5.3634,5.3727,5.3656,5.3629,5.365,5.3647,5.3709,5.3716,5.3739,5.3835,5.3839,5.3762,5.3766,5.3768,5.377,0,0,0,0,0,0,0,5.3455,5.347,5.3617,5.3584,5.3586,5.3578,5.3588,5.3651,5.3681,5.3631,5.363,5.3641,5.3709,5.3733,5.3741,5.384,5.3762,5.3767,5.3771,5.3773,5.4008,5.401,0,0,0,0,0,0,5.3449,5.3465,5.3614,5.362,5.3516,5.3583,5.3595,5.3632,5.3681,5.3686,5.3644,5.364,5.3725,5.3734,5.3744,5.3846,5.3768,5.3774,5.3777,5.4005,5.4008,5.4011,0,0,0,0,0,0,5.3445,5.3462,5.361,5.3542,5.356,5.359,5.3632,5.3635,5.366,5.3691,5.3695,5.3664,5.3723,5.3735,5.3809,5.3849,5.3776,5.3782,5.4002,5.4006,5.401,5.4053,0,0,0,0,0,0,5.3439,5.3461,5.3497,5.3543,5.3564,5.3678,5.3634,5.3639,5.3671,5.3667,5.3711,5.3715,5.3722,5.3801,5.3815,5.3856,5.3786,5.3998,5.4004,5.4009,5.4049,5.4059,5.4067,0,0,0,0,0,5.3432,5.3504,5.3499,5.3517,5.361,5.368,5.3692,5.3701,5.3674,5.3708,5.3728,5.3714,5.3843,5.3808,5.3824,5.3867,5.3996,5.4002,5.4008,5.4044,5.4057,5.4067,0,0,0,0,0,0,5.3459,5.351,5.3505,5.3596,5.3634,5.3677,5.3721,5.3714,5.3758,5.3753,5.3759,5.3769,5.3844,5.3863,5.3824,5.3952,5.3915,5.3925,5.3937,5.3949,5.3958,5.3951,5.3791,0,0,0,0,0,5.3476,5.3532,5.3573,5.3648,5.3668,5.3691,5.3722,5.3726,5.3764,5.378,5.3805,5.384,5.3888,5.392,5.3966,5.4051,5.4059,5.4088,5.4098,5.4105,5.4113,5.4156,5.4169,5.4032,5.4032,5.4032,0,0,5.3511,5.3546,5.358,5.3655,5.3685,5.3739,5.3705,5.3764,5.3803,5.3788,5.3859,5.3878,5.3918,5.3997,5.4034,5.4016,5.4153,5.4113,5.4119,5.4123,5.4164,5.4177,5.4189,5.4036,5.4035,5.4035,0,0,5.3602,5.3636,5.3701,5.3732,5.3779,5.3794,5.381,5.3854,5.3867,5.3939,5.3928,5.3973,5.4056,5.4085,5.411,5.4209,5.4197,5.4224,5.4272,5.4314,5.4325,5.4335,5.4368,5.438,5.4232,5.4232,5.4232,0,5.3638,5.3723,5.3735,5.3795,5.3826,5.3818,5.3882,5.391,5.3969,5.3989,5.3969,5.4073,5.4099,5.4183,5.4207,5.4229,5.4244,5.4219,5.4323,5.4333,5.4342,5.4373,5.4386,5.4235,5.4235,5.4234,5.4234,0,5.3764,5.3822,5.3869,5.3928,5.3965,5.4027,5.4044,5.4079,5.4079,5.4095,5.4167,5.4198,5.4249,5.427,5.427,5.4353,5.4341,5.4322,5.4284,5.4358,5.4387,5.44,5.4239,5.4238,5.4237,5.4236,0,0,5.3874,5.394,5.3956,5.3982,5.4033,5.4076,5.4136,5.4189,5.4217,5.4257,5.4305,5.4376,5.4358,5.4387,5.4389,5.4427,5.4501,5.4403,5.4404,5.4418,5.4591,5.4604,5.4618,5.4493,5.4496,5.4498,5.4587,0,5.3968,5.4077,5.4089,5.4184,5.4236,5.4228,5.4279,5.4314,5.433,5.4373,5.4389,5.4438,5.4413,5.443,5.4467,5.4484,5.4535,5.4478,5.4534,5.4536,5.4523,5.4634,5.4648,5.4731,5.4599,5.4601,5.4603,0,5.4092,5.4138,5.424,5.4282,5.4304,5.435,5.4398,5.4442,5.4479,5.4487,5.4519,5.4517,5.4574,5.4536,5.4613,5.4574,5.4597,5.4609,5.4612,5.4616,5.4573,5.4639,5.4758,5.477,5.4621,5.462,5.4618,0,5.4159,5.4246,5.4318,5.4341,5.4392,5.4424,5.4446,5.4482,5.4512,5.4553,5.4572,5.4618,5.4643,5.4677,5.4685,5.4657,5.4761,5.4724,5.4767,5.4767,5.4788,5.4786,5.4911,5.4807,5.4806,5.4806,5.4806,0,5.4261,5.4323,5.4349,5.4393,5.446,5.4472,5.4537,5.4557,5.4588,5.4633,5.4628,5.4669,5.4679,5.4721,5.4728,5.4789,5.48,5.4806,5.4807,5.4806,5.4805,5.482,5.4814,5.481,5.4809,5.4808,5.4808,0,5.4347,5.4368,5.4445,5.4487,5.4499,5.4547,5.4581,5.4622,5.4637,5.4693,5.4707,5.4729,5.4778,5.4791,5.4849,5.4853,5.4925,5.4921,5.4913,5.4912,5.4953,5.4948,5.509,5.5108,5.4994,5.4995,5.4996,0,5.441,5.4458,5.4506,5.4537,5.4562,5.4611,5.4643,5.4654,5.4687,5.4732,5.4766,5.4815,5.4855,5.4933,5.4952,5.4996,5.4992,5.5038,5.4998,5.4995,5.4989,5.4986,5.4989,5.5045,5.5047,5.5048,5.5048,0,5.4519,5.4527,5.4574,5.4624,5.4663,5.4702,5.4739,5.4764,5.478,5.4816,5.4868,5.4899,5.4959,5.5007,5.5051,5.5069,5.506,5.5061,5.5073,5.5071,5.5064,5.5066,5.4932,5.5057,5.5057,5.5056,5.5055,5.5055,5.4594,5.4635,5.4675,5.4727,5.4757,5.4792,5.4832,5.4852,5.4897,5.4948,5.4952,5.5007,5.504,5.5099,5.512,5.5161,5.5146,5.5164,5.5168,5.5172,5.5175,5.5059,5.5169,5.5169,5.5169,5.5169,5.5168,0,5.47,5.4726,5.4774,5.4828,5.4867,5.4859,5.49,5.4933,5.4983,5.5016,5.5056,5.5114,5.516,5.5183,5.5227,5.5255,5.5252,5.5266,5.5263,5.5267,5.5186,5.5171,5.5268,5.5268,5.5268,5.5268,5.5268,5.5268,5.476,5.4829,5.4841,5.4923,5.4947,5.5003,5.5027,5.5058,5.5085,5.5151,5.519,5.5206,5.5234,5.528,5.5321,5.5326,5.5341,5.5357,5.536,5.5283,5.5273,5.5263,5.5249,5.5361,5.5361,5.5437,5.5438,5.5439]}]]